TimeCST,TemperatureF,Dew PointF,Humidity,Sea Level PressureIn,VisibilityMPH,Wind Direction,Wind SpeedMPH,Gust SpeedMPH,PrecipitationIn,Events,Conditions,WindDirDegrees,DateUTC
12:53 AM,36.0,28.9,76,30.19,10.0,SSW,4.6,-,N/A,,Clear,210,2011-11-23 06:53:00
1:53 AM,41.0,30.9,67,30.18,10.0,WSW,10.4,-,N/A,,Clear,250,2011-11-23 07:53:00
3:53 AM,39.9,30.9,70,30.18,10.0,WSW,9.2,-,N/A,,Clear,250,2011-11-23 09:53:00
6:53 AM,36.0,28.9,76,30.22,10.0,WSW,4.6,-,N/A,,Clear,240,2011-11-23 12:53:00
7:53 AM,32.0,27.0,82,30.25,10.0,Calm,Calm,-,N/A,,Clear,0,2011-11-23 13:53:00
8:53 AM,41.0,30.0,65,30.25,10.0,West,3.5,-,N/A,,Clear,270,2011-11-23 14:53:00
9:53 AM,48.9,30.9,50,30.24,10.0,West,4.6,-,N/A,,Clear,280,2011-11-23 15:53:00
10:53 AM,59.0,32.0,36,30.22,10.0,WNW,4.6,-,N/A,,Clear,300,2011-11-23 16:53:00
11:53 AM,64.9,28.9,26,30.18,10.0,Calm,Calm,-,N/A,,Clear,0,2011-11-23 17:53:00
12:53 PM,68.0,27.0,21,30.14,10.0,South,6.9,-,N/A,,Clear,180,2011-11-23 18:53:00
1:53 PM,70.0,28.0,21,30.10,10.0,South,5.8,-,N/A,,Clear,170,2011-11-23 19:53:00
2:53 PM,71.1,28.0,20,30.08,10.0,South,10.4,-,N/A,,Clear,190,2011-11-23 20:53:00
3:53 PM,71.1,30.9,23,30.07,10.0,South,11.5,-,N/A,,Clear,180,2011-11-23 21:53:00
4:53 PM,66.9,28.9,24,30.07,10.0,South,11.5,-,N/A,,Clear,170,2011-11-23 22:53:00
5:53 PM,60.1,32.0,35,30.09,10.0,South,10.4,-,N/A,,Clear,170,2011-11-23 23:53:00
6:53 PM,48.0,30.9,52,30.13,10.0,South,5.8,-,N/A,,Clear,190,2011-11-24 00:53:00
7:53 PM,46.0,32.0,58,30.15,10.0,SSW,6.9,-,N/A,,Clear,200,2011-11-24 01:53:00
8:53 PM,46.0,30.9,56,30.14,10.0,SSW,8.1,-,N/A,,Clear,200,2011-11-24 02:53:00
9:53 PM,44.1,30.0,58,30.12,10.0,SSW,6.9,-,N/A,,Clear,200,2011-11-24 03:53:00
10:53 PM,39.9,28.9,65,30.10,10.0,SSW,9.2,-,N/A,,Clear,200,2011-11-24 04:53:00
11:53 PM,41.0,28.9,62,30.07,10.0,SSW,9.2,-,N/A,,Clear,200,2011-11-24 05:53:00